Temp
-7 -8 -8 -8 -8 -8 -8 -9 -8 -10 -10 -10 -11 -11 -10 -10 -9 -9 -8 -8 -8 -7 -7 -7 -8 -9 -10 -9 -8 -10 -9 -10 -10 -9 -9 -9 -9 -9 -9 -9 -8 -8 -8
-8 -8 -8 -8 -8 -8 -8 -9 -9 -9 -10 -10 -11 -11 -11 -11 -11 -10 -9 -10 -10 -10 -9 -10 -10 -10 -10 -11 -10 -9 -10 -10 -11 -10 -10 -9 -8 -9 -9 -9 -9 -9 -8
-8 -9 -9 -9 -8 -9 -9 -9 -9 -9 -10 -10 -11 -11 -11 -11 -11 -11 -10 -10 -10 -10 -10 -11 -11 -11 -11 -11 -11 -11 -11 -11 -10 -11 -10 -10 -10 -10 -10 -10 -10 -10 -10
-9 -9 -9 -9 -10 -10 -10 -10 -10 -9 -9 -10 -11 -11 -11 -11 -11 -11 -11 -11 -11 -11 -10 -11 -11 -11 -11 -12 -11 -11 -11 -11 -11 -11 -11 -11 -11 -10 -10 -10 -10 -9 -9
-10 -10 -9 -10 -10 -9 -10 -10 -10 -10 -9 -10 -11 -12 -12 -12 -12 -12 -12 -11 -12 -11 -11 -12 -12 -12 -11 -11 -11 -11 -11 -11 -11 -11 -11 -11 -11 -11 -11 -10 -10 -10 -9
-10 -10 -10 -10 -10 -10 -10 -10 -10 -10 -10 -10 -11 -11 -12 -12 -12 -12 -12 -12 -12 -12 -12 -12 -12 -12 -12 -12 -12 -11 -12 -11 -11 -11 -11 -11 -11 -11 -11 -11 -10 -10 -10
-10 -10 -10 -10 -10 -10 -10 -10 -10 -11 -11 -11 -11 -12 -12 -12 -12 -12 -12 -12 -12 -12 -12 -12 -12 -12 -12 -12 -12 -12 -11 -11 -11 -11 -12 -12 -12 -11 -11 -11 -12 -11 -12
-10 -10 -10 -10 -10 -10 -10 -10 -10 -12 -12 -12 -12 -12 -12 -12 -12 -12 -12 -13 -13 -13 -13 -13 -13 -13 -13 -13 -13 -13 -13 -13 -12 -13 -13 -13 -12 -12 -12 -12 -12 -12 -12
-10 -10 -10 -10 -10 -10 -11 -11 -12 -12 -12 -12 -12 -12 -12 -12 -12 -13 -13 -13 -13 -13 -13 -13 -13 -13 -13 -14 -14 -14 -13 -13 -13 -13 -13 -13 -13 -13 -13 -12 -13 -12 -12
-10 -10 -10 -10 -11 -11 -12 -12 -12 -13 -13 -13 -13 -13 -13 -13 -13 -13 -13 -13 -13 -13 -13 -13 -13 -14 -14 -13 -14 -13 -13 -13 -13 -13 -13 -13 -13 -13 -13 -12 -13 -13 -13
-10 -10 -11 -11 -11 -11 -12 -13 -13 -13 -13 -13 -13 -13 -13 -13 -13 -13 -14 -14 -14 -14 -14 -13 -13 -13 -13 -13 -13 -13 -13 -13 -13 -13 -13 -13 -13 -13 -13 -13 -13 -13 -13
-11 -11 -11 -12 -12 -12 -12 -13 -13 -13 -13 -13 -13 -13 -13 -13 -13 -14 -14 -14 -14 -14 -14 -14 -14 -14 -14 -14 -13 -13 -14 -13 -13 -13 -13 -14 -14 -14 -13 -13 -13 -13 -13
-11 -11 -12 -12 -12 -12 -12 -13 -13 -13 -13 -13 -13 -13 -13 -13 -13 -13 -13 -13 -13 -13 -14 -14 -14 -14 -14 -14 -14 -14 -14 -14 -13 -13 -13 -14 -14 -14 -14 -15 -14 -14 -14
-11 -11 -12 -12 -12 -12 -13 -13 -13 -13 -13 -13 -13 -13 -13 -13 -13 -13 -13 -14 -14 -14 -14 -14 -14 -14 -14 -14 -14 -14 -14 -14 -14 -14 -13 -14 -14 -14 -15 -14 -15 -15 -14
-11 -12 -12 -12 -13 -13 -13 -13 -13 -13 -13 -13 -13 -13 -14 -14 -14 -14 -14 -14 -14 -13 -14 -14 -14 -14 -14 -14 -14 -14 -14 -14 -15 -15 -14 -14 -15 -15 -14 -14 -15 -14 -14
-12 -12 -12 -13 -13 -13 -13 -13 -13 -13 -13 -13 -14 -14 -14 -14 -13 -13 -13 -13 -13 -13 -13 -13 -14 -14 -14 -14 -14 -15 -15 -14 -14 -14 -15 -15 -15 -15 -15 -15 -15 -15 -15
-12 -12 -13 -13 -13 -13 -13 -13 -13 -13 -13 -13 -14 -14 -13 -13 -14 -14 -14 -14 -14 -14 -14 -14 -14 -13 -14 -14 -14 -15 -15 -15 -16 -16 -16 -16 -16 -16 -16 -16 -16 -16 -15
-12 -12 -13 -13 -13 -13 -13 -13 -13 -13 -13 -13 -13 -14 -14 -13 -13 -13 -13 -14 -14 -14 -14 -14 -14 -14 -14 -14 -15 -15 -16 -16 -16 -16 -16 -16 -17 -17 -17 -17 -17 -17 -16
-13 -13 -13 -13 -13 -13 -13 -13 -13 -13 -13 -14 -14 -13 -13 -13 -14 -14 -14 -14 -14 -14 -14 -14 -14 -14 -15 -15 -15 -16 -16 -16 -16 -16 -17 -17 -17 -17 -17 -17 -17 -17 -18
-13 -13 -13 -13 -13 -13 -13 -13 -13 -14 -13 -13 -13 -13 -14 -14 -14 -14 -13 -14 -14 -14 -14 -14 -14 -14 -15 -15 -15 -15 -16 -16 -16 -17 -17 -17 -18 -18 -18 -18 -18 -18 -18
-14 -13 -14 -14 -14 -13 -13 -13 -13 -13 -13 -13 -13 -13 -13 -13 -13 -13 -13 -14 -14 -14 -14 -14 -14 -14 -14 -15 -16 -16 -16 -16 -17 -17 -17 -18 -18 -18 -19 -19 -19 -19 -19
-14 -14 -14 -14 -14 -14 -14 -14 -13 -13 -13 -14 -13 -13 -13 -13 -13 -14 -14 -14 -14 -14 -14 -14 -14 -14 -14 -15 -15 -16 -16 -17 -17 -17 -18 -18 -18 -19 -19 -20 -20 -20 -20
-14 -14 -14 -14 -14 -14 -14 -14 -13 -13 -13 -13 -13 -13 -13 -13 -14 -14 -14 -14 -14 -14 -14 -14 -14 -14 -15 -15 -16 -17 -17 -17 -17 -18 -18 -18 -19 -19 -19 -20 -20 -21 -21
-15 -15 -14 -14 -14 -14 -14 -13 -14 -14 -14 -14 -13 -14 -13 -14 -14 -14 -14 -14 -14 -13 -14 -14 -14 -15 -15 -16 -17 -17 -17 -18 -18 -18 -18 -19 -19 -20 -20 -20 -21 -22 -22
-15 -15 -14 -14 -14 -14 -14 -14 -14 -14 -14 -13 -14 -14 -14 -14 -13 -14 -14 -13 -13 -14 -15 -15 -15 -16 -16 -17 -17 -17 -17 -18 -18 -18 -19 -19 -20 -20 -20 -21 -21 -22 -23
-14 -14 -14 -14 -14 -14 -14 -14 -14 -14 -14 -14 -14 -14 -14 -13 -13 -13 -13 -13 -13 -14 -15 -15 -16 -16 -16 -16 -17 -17 -18 -18 -18 -19 -19 -20 -20 -21 -21 -21 -22 -22 -23
Height
5895 5893 5891 5890 5887 5884 5882 5880 5878 5875 5873 5871 5869 5868 5866 5865 5862 5859 5856 5854 5851 5849 5846 5843 5842 5841 5841 5839 5839 5840 5839 5838 5837 5838 5840 5840 5839 5838 5838 5840 5840 5840 5841
5886 5884 5882 5880 5879 5876 5873 5871 5869 5866 5864 5861 5859 5858 5856 5854 5851 5848 5845 5843 5841 5838 5835 5834 5832 5831 5831 5831 5830 5830 5829 5830 5828 5826 5826 5828 5827 5828 5829 5827 5825 5826 5828
5876 5873 5871 5869 5867 5866 5864 5862 5860 5857 5854 5850 5848 5845 5843 5842 5839 5837 5835 5832 5831 5830 5829 5827 5826 5824 5822 5821 5821 5821 5822 5821 5820 5817 5816 5817 5817 5817 5816 5816 5814 5812 5813
5866 5864 5862 5861 5858 5856 5855 5852 5849 5846 5842 5839 5837 5835 5832 5830 5828 5826 5826 5824 5822 5820 5819 5818 5817 5815 5815 5814 5813 5812 5811 5810 5811 5811 5809 5807 5807 5805 5804 5804 5802 5800 5797
5858 5856 5854 5852 5849 5847 5846 5843 5840 5837 5833 5829 5827 5823 5821 5819 5817 5816 5815 5814 5812 5811 5810 5809 5808 5807 5806 5805 5804 5802 5801 5800 5799 5798 5798 5797 5795 5793 5793 5792 5791 5789 5787
5850 5848 5846 5845 5842 5839 5837 5834 5831 5827 5824 5822 5819 5816 5813 5811 5810 5809 5807 5806 5805 5804 5803 5802 5800 5799 5798 5797 5795 5793 5792 5792 5791 5789 5788 5787 5785 5784 5782 5780 5779 5777 5776
5842 5840 5838 5836 5834 5831 5828 5826 5822 5820 5818 5815 5812 5810 5808 5807 5805 5802 5800 5798 5797 5797 5797 5795 5794 5792 5790 5788 5787 5786 5785 5784 5782 5781 5778 5777 5775 5773 5772 5768 5765 5765 5762
5835 5833 5832 5829 5826 5823 5820 5817 5814 5812 5810 5808 5806 5804 5803 5801 5798 5795 5793 5791 5790 5789 5787 5786 5785 5783 5782 5780 5779 5778 5777 5775 5774 5773 5771 5768 5766 5763 5760 5759 5755 5752 5749
5828 5827 5824 5821 5818 5815 5812 5809 5807 5805 5804 5802 5800 5799 5797 5796 5794 5792 5789 5787 5786 5784 5783 5781 5780 5778 5776 5775 5774 5772 5770 5767 5765 5763 5761 5759 5756 5754 5751 5749 5747 5744 5741
5821 5820 5818 5815 5812 5807 5804 5802 5800 5799 5798 5797 5795 5794 5793 5791 5789 5788 5786 5783 5781 5779 5778 5776 5775 5773 5771 5768 5767 5765 5763 5760 5758 5756 5753 5751 5748 5745 5742 5740 5738 5737 5734
5818 5815 5812 5807 5804 5800 5798 5798 5797 5796 5795 5794 5792 5790 5789 5788 5786 5784 5782 5780 5778 5776 5775 5773 5771 5769 5767 5765 5763 5760 5758 5756 5753 5750 5748 5745 5742 5738 5735 5732 5730 5727 5724
5811 5808 5804 5801 5799 5797 5796 5795 5793 5792 5791 5789 5788 5786 5785 5784 5782 5780 5778 5777 5776 5774 5772 5769 5766 5764 5761 5758 5755 5751 5748 5746 5744 5742 5740 5738 5735 5732 5728 5724 5720 5718 5716
5804 5800 5797 5796 5795 5794 5792 5791 5789 5788 5787 5785 5783 5782 5781 5779 5777 5775 5774 5772 5771 5769 5767 5765 5761 5758 5755 5752 5749 5745 5741 5738 5733 5729 5727 5725 5721 5717 5713 5710 5707 5704 5703
5796 5794 5792 5791 5790 5789 5787 5786 5785 5783 5782 5780 5779 5778 5776 5774 5773 5771 5770 5768 5765 5763 5761 5758 5755 5752 5748 5743 5739 5734 5730 5724 5720 5717 5712 5708 5704 5700 5696 5692 5689 5690 5687
5790 5788 5786 5785 5784 5784 5783 5781 5780 5779 5777 5776 5775 5774 5773 5770 5768 5766 5764 5762 5759 5756 5753 5750 5746 5741 5738 5733 5730 5724 5719 5714 5709 5703 5699 5694 5688 5683 5680 5675 5672 5669 5670
5784 5783 5781 5780 5780 5778 5777 5775 5775 5774 5773 5772 5772 5770 5768 5766 5763 5761 5758 5756 5752 5748 5745 5740 5735 5729 5725 5721 5715 5711 5704 5699 5693 5686 5680 5674 5670 5665 5661 5658 5654 5652 5650
5779 5778 5777 5776 5775 5774 5773 5771 5769 5769 5768 5767 5766 5764 5763 5761 5757 5754 5751 5747 5742 5738 5732 5727 5722 5716 5712 5707 5700 5695 5690 5683 5677 5669 5662 5656 5652 5647 5642 5639 5635 5633 5630
5774 5773 5771 5770 5770 5769 5768 5767 5766 5765 5763 5762 5761 5760 5756 5754 5750 5746 5743 5739 5734 5729 5724 5718 5713 5707 5701 5694 5687 5681 5674 5666 5659 5651 5645 5639 5634 5629 5625 5621 5617 5614 5612
5767 5767 5765 5765 5764 5764 5763 5762 5762 5760 5759 5758 5756 5752 5749 5746 5742 5739 5735 5731 5726 5720 5714 5707 5701 5695 5688 5680 5671 5663 5656 5649 5642 5636 5629 5623 5618 5614 5609 5604 5600 5596 5593
5761 5759 5759 5758 5758 5757 5757 5756 5756 5755 5754 5752 5748 5746 5743 5740 5736 5731 5726 5721 5714 5707 5701 5694 5687 5681 5673 5663 5656 5648 5641 5634 5628 5621 5614 5608 5602 5597 5592 5588 5584 5580 5576
5755 5753 5751 5751 5751 5750 5751 5752 5752 5751 5747 5745 5742 5737 5735 5733 5726 5721 5716 5709 5701 5695 5690 5683 5676 5666 5656 5649 5641 5633 5627 5620 5613 5606 5599 5593 5586 5581 5575 5571 5567 5563 5560
5748 5747 5746 5745 5744 5746 5746 5745 5744 5742 5740 5737 5735 5730 5726 5722 5716 5711 5704 5698 5692 5686 5678 5670 5662 5653 5645 5637 5629 5621 5613 5605 5598 5591 5584 5578 5571 5565 5560 5555 5550 5546 5543
5742 5741 5740 5740 5741 5741 5740 5739 5737 5735 5732 5729 5725 5721 5717 5712 5708 5702 5695 5689 5681 5673 5666 5658 5648 5640 5631 5623 5616 5608 5600 5591 5583 5576 5569 5562 5555 5549 5544 5539 5534 5530 5526
5735 5734 5735 5736 5735 5734 5731 5730 5728 5725 5724 5721 5717 5713 5708 5704 5699 5693 5686 5679 5670 5660 5653 5645 5637 5628 5619 5610 5603 5594 5586 5577 5569 5561 5553 5547 5540 5534 5530 5524 5519 5514 5510
5731 5730 5730 5729 5727 5726 5723 5722 5720 5718 5716 5713 5709 5704 5700 5695 5689 5682 5675 5667 5658 5650 5641 5633 5625 5616 5606 5597 5589 5581 5573 5564 5556 5548 5540 5533 5527 5520 5515 5509 5503 5498 5494
5726 5726 5724 5722 5722 5721 5721 5718 5715 5712 5707 5703 5700 5698 5692 5683 5676 5668 5662 5655 5647 5639 5631 5622 5613 5603 5593 5584 5575 5567 5558 5550 5543 5535 5527 5520 5513 5506 5500 5494 5488 5484 5479
Wind_Speed
29 30 30 33 33 34 36 34 37 37 38 38 34 30 26 27 27 29 33 35 37 40 39 39 38 32 27 25 24 25 24 29 33 37 43 44 41 48 47 46 48 51 49
31 32 34 35 36 35 34 35 36 37 38 38 36 34 30 29 30 34 37 38 39 39 37 32 31 26 32 30 31 30 27 28 31 36 36 35 29 40 45 41 43 47 51
34 32 32 32 33 34 36 35 34 37 40 41 39 37 36 33 30 31 34 39 37 37 36 36 35 36 34 31 33 32 33 31 32 34 35 40 42 44 45 47 49 49 49
32 31 31 33 34 34 34 31 31 34 35 39 39 38 37 35 35 33 34 35 32 33 33 32 31 31 33 34 37 37 38 39 40 42 43 45 45 45 48 50 54 55 57
30 30 31 32 33 32 30 31 35 36 32 29 33 34 34 32 30 32 30 28 26 26 25 25 25 26 27 29 30 30 31 32 33 34 36 39 42 43 46 48 50 55 57
29 30 30 30 28 29 32 35 34 33 32 30 28 28 26 25 26 28 27 27 25 26 28 29 29 30 29 30 31 31 30 31 32 33 35 36 39 42 46 48 49 49 50
27 27 27 28 30 33 32 30 30 28 25 24 20 20 21 22 24 28 30 31 31 30 30 32 34 35 34 33 34 34 35 35 37 35 34 37 36 36 38 40 41 41 38
24 25 27 29 28 29 30 30 31 27 25 21 18 19 18 16 18 20 20 21 23 22 20 19 17 17 18 20 22 23 24 25 27 26 27 30 31 31 32 30 30 30 30
22 23 25 28 30 30 30 29 26 23 20 17 14 17 18 18 19 17 16 17 16 16 17 17 17 18 18 18 18 21 24 25 26 27 29 31 32 33 32 30 30 28 28
19 24 27 28 29 27 23 21 20 15 15 14 17 17 17 16 16 16 16 17 18 19 18 19 18 19 21 21 21 22 23 25 27 28 29 30 32 33 33 31 31 31 32
21 25 25 24 19 19 16 9 13 14 14 15 15 15 16 16 15 14 14 17 17 18 20 20 20 21 22 23 24 26 27 29 30 32 33 34 36 37 36 35 37 37 34
20 21 19 15 14 11 12 14 14 14 15 14 15 13 13 14 16 16 16 16 16 16 18 20 22 23 23 25 28 30 32 33 33 33 33 35 37 40 42 42 40 40 40
18 18 15 11 10 13 14 14 14 14 13 14 14 14 14 16 16 14 14 15 16 17 19 22 25 27 29 31 32 35 37 37 36 35 41 44 43 46 46 48 48 47 45
18 17 15 14 16 16 15 15 14 14 14 14 14 15 16 15 15 17 18 20 22 23 24 27 29 30 32 36 39 36 44 47 44 45 51 45 42 50 54 54 51 50 50
17 18 15 14 13 14 15 14 15 15 16 16 15 15 16 18 19 19 19 20 23 25 27 29 33 35 36 38 40 42 42 43 44 50 56 53 57 54 52 52 52 50 49
17 17 16 15 15 15 16 18 18 15 14 14 14 16 17 18 19 20 23 25 27 32 31 38 39 40 42 42 51 47 41 52 57 58 57 54 53 54 50 55 57 54 55
18 17 16 17 17 17 18 16 16 15 14 14 16 19 20 22 24 25 26 31 31 35 36 40 40 38 42 50 49 45 55 59 60 54 54 54 51 50 53 51 60 66 59
20 19 18 18 19 18 16 14 14 14 16 17 18 20 21 22 24 29 31 31 35 38 42 46 47 48 49 51 53 49 54 58 54 50 50 49 50 49 50 52 54 54 56
23 21 19 19 18 16 16 15 15 15 15 19 21 23 25 26 30 32 31 35 35 38 42 45 47 49 52 53 52 54 54 51 50 51 51 51 50 48 48 49 49 51 50
23 23 19 19 17 17 18 16 15 17 19 20 21 23 24 27 32 33 36 36 42 43 44 48 50 51 52 53 54 53 49 50 53 54 53 52 51 50 49 47 46 47 49
21 22 20 19 17 19 17 16 17 18 19 17 24 28 27 32 31 32 37 39 42 45 48 48 48 52 53 53 49 49 50 53 53 51 50 50 50 51 51 50 48 47 46
21 20 20 19 18 15 16 18 19 19 24 25 26 27 27 28 32 36 40 41 42 46 46 47 50 52 54 55 53 51 52 51 50 49 49 49 50 51 50 48 47 46 46
20 19 17 16 16 17 17 16 16 18 18 22 22 24 27 30 34 38 41 42 45 47 45 48 51 53 55 54 51 53 51 50 49 49 48 48 47 47 46 47 46 46 45
19 18 16 14 16 13 15 17 16 22 24 28 26 28 30 34 39 40 42 43 46 48 50 51 53 54 55 52 52 51 50 50 49 48 47 46 46 47 47 47 47 45 43
18 16 15 17 15 17 21 19 19 15 20 24 28 32 34 39 38 40 43 46 49 51 52 53 54 54 52 52 52 50 50 51 50 48 46 45 46 46 46 46 46 45 42
17 16 16 19 20 20 20 17 19 22 23 27 31 36 38 38 42 43 46 50 53 53 53 53 54 55 55 55 54 51 50 51 51 48 46 46 45 44 44 44 43 42 42
Wind_Direction
278 280 283 285 288 290 292 296 298 300 298 299 299 296 286 278 278 268 262 266 261 266 265 265 266 265 255 257 245 242 239 245 250 251 253 262 267 265 270 264 262 266 268
286 289 288 288 288 291 294 295 294 294 295 296 294 293 290 284 279 273 268 276 276 273 267 264 263 260 259 255 255 254 244 248 254 248 238 257 272 265 263 270 265 263 266
291 289 288 291 293 294 294 294 295 297 294 290 290 291 291 289 288 285 285 284 283 278 275 271 271 271 268 261 258 261 257 253 260 268 253 254 260 264 274 273 275 277 278
291 289 291 293 295 294 294 295 296 301 297 287 285 290 288 286 287 286 288 288 285 279 279 281 281 279 275 270 274 271 266 262 264 261 261 263 268 268 272 275 272 273 279
283 287 290 293 296 296 295 293 296 300 300 296 290 288 285 284 284 287 290 288 281 277 276 277 278 279 281 283 281 280 278 276 275 273 270 269 270 271 270 271 271 270 272
286 285 288 292 291 291 292 295 296 296 294 291 287 284 282 285 288 289 286 283 278 274 279 284 286 287 287 286 287 286 282 279 277 276 277 277 277 276 275 274 272 272 273
284 287 290 290 291 292 293 293 296 296 295 290 289 289 290 290 291 289 287 285 285 283 283 285 284 284 283 282 282 280 279 279 278 278 280 278 277 278 278 278 278 275 275
290 294 292 290 292 294 296 295 293 292 291 289 290 291 289 297 306 305 294 290 291 294 297 296 295 294 290 284 280 279 279 280 280 281 281 282 283 283 281 279 280 283 285
294 294 299 300 298 295 291 290 288 284 281 288 285 289 296 297 297 304 306 305 303 301 299 298 299 294 292 288 286 284 283 283 287 289 287 285 286 288 285 285 285 283 283
304 305 301 297 293 291 290 289 288 282 289 286 290 291 293 300 305 301 301 298 295 297 296 295 299 301 301 300 300 297 296 297 298 295 292 290 288 286 287 285 286 286 286
298 301 299 297 297 297 292 278 282 274 278 283 286 286 288 290 291 298 295 293 295 295 297 300 301 302 300 299 299 298 298 295 294 292 293 293 290 289 288 291 292 288 285
297 301 302 299 301 302 300 289 289 282 282 281 285 283 284 284 290 292 289 287 293 298 303 305 304 302 295 290 287 285 286 288 288 291 294 295 295 292 287 284 283 284 288
305 311 305 292 287 300 299 303 297 284 275 281 284 287 288 292 300 305 313 319 321 316 310 305 301 298 298 299 299 300 298 295 288 288 296 291 289 286 283 279 276 277 279
314 310 301 288 285 293 293 295 294 286 280 281 286 291 302 311 320 320 317 316 315 313 310 306 305 302 299 293 290 295 303 286 287 286 298 292 287 294 286 274 273 276 277
311 307 301 298 290 289 287 283 286 284 284 280 290 300 310 309 308 306 304 301 301 299 300 297 293 294 289 303 296 299 300 300 290 290 291 290 288 288 287 282 277 281 276
307 301 295 292 290 289 288 288 287 284 281 283 290 292 294 295 298 302 305 302 300 306 300 306 303 294 298 293 300 296 299 305 299 297 295 294 290 289 284 278 276 281 278
305 294 283 278 276 282 286 284 280 280 283 285 290 295 302 308 307 302 300 301 303 305 302 314 313 307 299 307 306 293 295 301 302 297 297 295 291 290 289 286 276 277 279
300 289 275 267 273 279 277 271 270 276 283 290 300 304 296 294 298 298 309 310 310 303 308 304 302 306 308 307 305 298 299 302 303 302 301 300 298 296 290 283 284 283 283
300 286 270 268 268 266 261 261 267 277 291 299 299 298 298 300 306 301 296 306 306 307 304 306 310 311 310 309 310 309 306 306 307 307 304 302 300 298 295 292 289 287 288
291 283 270 265 260 254 254 263 277 287 289 295 296 301 299 297 301 303 302 302 307 310 313 315 314 313 311 312 313 307 306 307 307 307 305 304 302 301 299 296 290 285 283
286 273 267 263 254 253 264 279 286 285 282 295 307 285 281 307 305 305 308 311 315 318 316 314 313 314 313 312 309 305 307 308 308 307 306 306 304 301 297 295 293 290 286
281 271 259 253 260 276 281 280 287 285 294 279 290 300 304 311 316 318 317 315 312 313 314 316 317 316 315 314 312 309 309 309 309 309 309 308 306 303 301 298 294 291 288
270 267 267 266 268 267 272 278 272 268 294 307 306 315 315 317 314 312 315 316 319 319 318 320 322 320 317 315 312 313 312 312 312 311 310 308 307 306 305 302 299 295 290
265 267 265 265 269 279 280 274 285 271 279 300 309 312 314 314 310 314 318 320 323 325 324 323 323 322 318 315 315 315 314 314 313 311 310 311 309 308 307 305 302 297 292
263 267 265 265 264 267 277 291 267 286 293 301 307 312 310 304 310 317 320 324 325 325 324 323 321 319 317 316 318 317 315 315 315 312 310 310 309 308 307 306 304 301 297
268 271 275 271 270 269 276 292 296 297 303 313 313 308 310 314 318 321 322 322 324 327 322 321 322 323 321 319 319 318 317 317 316 313 312 312 310 309 309 308 306 303 298